Regional Weather Roundup
Issued by NWS

Home | Current Version | Previous Version | Graphics & Text | Print | Product List | Glossary On
Versions: 1 2 3 4 5 6 7 8 9 10 11 12 13 14 15 16 17 18 19 20 21 22 23 24 25 26 27 28 29 30 31 32 33 34 35 36 37 38 39 40 41 42 43 44 45 46 47 48 49 50
000
ASUS43 KMKX 041400
RWRWI

WISCONSIN REGIONAL WEATHER ROUNDUP
NATIONAL WEATHER SERVICE MILWAUKEE/SULLIVAN WI
800 AM CST SUN DEC 04 2016

NOTE: "FAIR" INDICATES FEW OR NO CLOUDS BELOW 12,000 FEET WITH NO
SIGNIFICANT WEATHER AND/OR OBSTRUCTIONS TO VISIBILITY.

WIZ001-002-006>008-014>016-023>028-041500-
NORTHWEST WISCONSIN

CITY           SKY/WX    TMP DP  RH WIND       PRES   REMARKS
SUPERIOR ARPT  LGT SNOW  29  28  96 E3        29.98F
ASHLAND        LGT SNOW  29  25  85 SE5       30.01F FOG     WCI  24
HAYWARD        LGT SNOW  29  25  85 SE9       29.97F FOG     WCI  20
SIREN          LGT SNOW  30  29  94 SE6       29.94F WCI  24
CUMBERLAND     SNOW      28  28 100 SE8       29.96F VSB 1/2 WCI  20
RICE LAKE      LGT SNOW  30  28  94 SE8       29.99F WCI  22
CHETEK         LGT SNOW  29  28  96 SE7       29.99F WCI  22
LADYSMITH      LGT SNOW  30  28  95 SE7       30.01F WCI  23
EAU CLAIRE     LGT SNOW  30  29  96 SE8       29.97F VSB 3/4 WCI  22
MENOMONIE      LGT SNOW  31  31  99 E9        29.98F WCI  23
NEW RICHMOND   LGT SNOW  31  31  99 SE9       29.94F WCI  23
OSCEOLA        LGT SNOW  32  32 100 SE8       29.96F WCI  24
$$

WIZ003>005-009-010-017-018-041500-
NORTH CENTRAL WISCONSIN

CITY           SKY/WX    TMP DP  RH WIND       PRES   REMARKS
MANITOWISH WTR LGT SNOW  26  26 100 S7        30.01F WCI  18
ARBOR VITAE    LGT SNOW  27  25  90 S7        30.03F WCI  20
WOODRUFF       LGT SNOW  27  25  90 S7        30.03F WCI  20
RHINELANDER    LGT SNOW  26  25  96 SE5       30.04F FOG     WCI  20
EAGLE RIVER    LGT SNOW  26  22  83 S5        30.03F WCI  20
LAND O LAKES   CLOUDY    27  22  82 S7        30.05S WCI  19
PHILLIPS       LGT SNOW  27  26  97 SE6       30.00F WCI  20
TOMAHAWK       LGT SNOW  26  24  92 SE3       30.05F
MEDFORD        LGT SNOW  27  25  92 SE5       30.01F WCI  21
MERRILL        LGT SNOW  27  26  96 SE3       30.05F
$$

WIZ029-030-035-036-043>047-041500-
CENTRAL WISCONSIN

CITY           SKY/WX    TMP DP  RH WIND       PRES   REMARKS
WAUSAU         LGT SNOW  27  25  92 SE6       30.05F FOG     WCI  20
MOSINEE        LGT SNOW  27  27 100 SE7       30.06F WCI  19
MARSHFIELD     LGT SNOW  28  26  92 SE8       30.02F VSB 3/4 WCI  20
STEVENS POINT  MIX PCPN  27  27 100 SE5       30.08F WCI  21
WAUPACA        MIX PCPN  31  28  90 CALM      30.13S
WAUTOMA        LGT SNOW  30  28  92 SE5       30.10  FOG     WCI  25
WISC RAPIDS    LGT SNOW  29  28  96 SE9       30.07F FOG     WCI  20
CAMP DOUGLAS   LGT SNOW  30  28  93 SE9       30.05F FOG     WCI  22
$$

WIZ011>013-019>022-031-037>040-048>050-041500-
NORTHEAST WISCONSIN

CITY           SKY/WX    TMP DP  RH WIND       PRES   REMARKS
ANTIGO         LGT SNOW  26  24  93 SE9       30.07F WCI  16
SHAWANO        LGT SNOW  31  28  87 CALM      30.13F
OCONTO         CLOUDY    30  23  74 CALM      30.14F
STURGEON BAY   CLOUDY    30  24  78 SW6       30.16F WCI  24
GREEN BAY      LGT SNOW  31  29  92 S7        30.14F FOG     WCI  24
MANITOWOC      LGT SNOW  30  27  86 SW9       30.17S WCI  22
APPLETON       LGT SNOW  28  28 100 S5        30.11F WCI  23
CLINTONVILLE   LGT SNOW  30  28  93 SE3       30.12F
OSHKOSH        LGT SNOW  30  27  88 SE7       30.12F VSB 1   WCI  23
$$

WIZ032>034-041-042-053>061-041500-
SOUTHWEST WISCONSIN

CITY           SKY/WX    TMP DP  RH WIND       PRES   REMARKS
LA CROSSE      LGT SNOW  34  32  92 SE10      30.01S FOG     WCI  26
SPARTA         LGT SNOW  31  30  97 E7        30.03F WCI  24
VIROQUA        CLOUDY    31  31 100 SE13      30.00F WCI  21
BOSCOBEL       LGT SNOW  33  30  88 SE8       30.07F VSB 1   WCI  26
PRAIRIE DU CHI LGT SNOW  32  30  93 SE7       30.04F WCI  26
PLATTEVILLE    CLOUDY    31  31 100 SE13      30.06F VSB 1   WCI  21
$$

WIZ056-057-062-063-064-067-068-041500-
SOUTH CENTRAL WISCONSIN

CITY           SKY/WX    TMP DP  RH WIND       PRES   REMARKS
REEDSBURG      MIX PCPN  30  30 100 SE5       30.06F WCI  25
BARABOO/DELLS  LGT SNOW  30  29  96 SE6       30.07F WCI  24
LONE ROCK      LGT SNOW  31  29  92 SE7       30.08F VSB 3/4 WCI  24
MINERAL POINT  LGT SNOW  32  32 100 SE10      30.05F VSB 3/4 WCI  24
MADISON        LGT SNOW  30  28  92 S12       30.10F VSB 1   WCI  20
MIDDLETON      CLOUDY    32  32 100 S7        30.09F VSB 1   WCI  26
WATERTOWN      LGT SNOW  30  30  98 SE5       30.11F WCI  25
MONROE         LGT SNOW  30  30 100 SE10      30.09F VSB 1   WCI  21
JANESVILLE     LGT SNOW  34  28  80 SE9       30.12F WCI  26
$$

WIZ051-052-058>065-066-070>072-041500-
SOUTHEAST WISCONSIN

CITY           SKY/WX    TMP DP  RH WIND       PRES   REMARKS
MILWAUKEE      CLOUDY    33  26  75 SE3       30.14F
WAUKESHA       CLOUDY    28  25  86 CALM      30.14F
MILWAUKEE/TIMM CLOUDY    30  25  80 CALM      30.15F
RACINE         CLOUDY    32  26  78 CALM      30.16F
BURLINGTON     MOCLDY    31  27  86 CALM      30.14F
KENOSHA        CLOUDY    32  27  81 SE3       30.14F
FOND DU LAC    LGT SNOW  30  27  88 SE6       30.13F VSB 1   WCI  24
SHEBOYGAN      LGT SNOW  30  26  85 S3        30.15F FOG
WEST BEND      CLOUDY    30  28  93 CALM      30.14F
JUNEAU         LGT SNOW  29  28  94 SE6       30.13F WCI  23
$$

LSZ147-162-041500-
LAKE SUPERIOR

STATION/POSITION TIME  TEMP    WIND        PRES    WAVE
                       AIR SEA DIR/SP/G            HT/PER
                 (UTC) (F)     (DEG/KT/KT) (MB)    (FT/S)
DEVILS ISLAND    1300   32     160/  7/ 10 1017.9F
PORT WING        1340   29     140/  3/  9 1015.9F
SAXON HARBOR     1340   30     180/  3/  5 1016.6F
$$

LMZ867-665-643>646-041500-
LAKE MICHIGAN

STATION/POSITION TIME  TEMP    WIND        PRES    WAVE
                       AIR SEA DIR/SP/G            HT/PER
                 (UTC) (F)     (DEG/KT/KT) (MB)    (FT/S)
CHAMBERS ISLAND  1340   33     210/  3/  7 1020.3F
NORTHPORT PIER   1340   33      CALM  /  5 1021.0S
SISTER BAY       1309   33     200/  8/ 10   N/A
ALGOMA LAKESHORE 1321          270/  5/  6   N/A
KEWAUNEE LAKESHO 1330   31     240/  4/  7 1020.9F
SHEBOYGAN LAKESH 1300   32     210/  7/  8 1022.3F
PORT WASHINGTON  1330   32     240/  3/  4 1022.7S
MILWAUKEE LAKESH 1330   34     200/  3/  4   N/A
S MID LAKE BUOY  1250   37 48  200/  4/  8 1022.4R   0
KENOSHA   LAKESH 1300   33     290/  4/  5 1022.0
$$

TC  - TEMPERATURE IN CELSIUS
VSB - VISIBILITY IN STATUTE MILES
WCI - WIND CHILL INDEX
HX  - HEAT INDEX




USA.gov is the U.S. government's official web portal to all federal, state and local government web resources and services.